Stations météo

réclame
Mon MeteoGroup
Garmisch-Partenkirchen, Allemagne (10963): Température de l'air & dewpoint: 11.02.2019 15:00:00 - 17.02.2019 15:00:00 (CET)Garmisch-Partenkirchen, Allemagne (10963): Température de l'air 5cm & Température de l'air -5cm: 11.02.2019 15:00:00 - 17.02.2019 15:00:00 (CET)Garmisch-Partenkirchen, Allemagne (10963): Température de l'air -20cm & Température de l'air -100cm: 11.02.2019 15:00:00 - 17.02.2019 15:00:00 (CET)Garmisch-Partenkirchen, Allemagne (10963): Vitesse du vent & gusts: 11.02.2019 15:00:00 - 17.02.2019 15:00:00 (CET)Garmisch-Partenkirchen, Allemagne (10963): Direction du vent: 11.02.2019 15:00:00 - 17.02.2019 15:00:00 (CET)Garmisch-Partenkirchen, Allemagne (10963): reduced air pressure: 11.02.2019 15:00:00 - 17.02.2019 15:00:00 (CET)Garmisch-Partenkirchen, Allemagne (10963): visibility: 11.02.2019 15:00:00 - 17.02.2019 15:00:00 (CET)Garmisch-Partenkirchen, Allemagne (10963): Ensoleillement: 11.02.2019 15:00:00 - 17.02.2019 15:00:00 (CET)Garmisch-Partenkirchen, Allemagne (10963): Quantités de précipitations: 11.02.2019 15:00:00 - 17.02.2019 15:00:00 (CET)
Date & Time tt [°C] td [°C] tt 5cm [°C] tt -5cm [°C] tt -20cm [°C] tt -100cm [°C] ff [km/h] ff [knt] fx [km/h] fx [knt] dd ppp [hPa] vv [km] sd [min] rr [mm]
17.02.2019 15:00:00 11,1 -3,5 8,1 0,3 0,6 3,2 3 2 4 2 SSW 1024,5 71 60 0,0
17.02.2019 14:00:00 13,6 -3,8 10,5 0,2 0,6 3,2 3 1 6 4 SE 1024,2 51 60 0,0
17.02.2019 13:00:00 13,2 -3,0 10,2 0,2 0,6 3,2 3 1 6 3 SE 1025,1 75 60 0,0
17.02.2019 12:00:00 9,6 -2,6 7,5 0,2 0,6 3,2 2 1 8 4 S 1027,3 74 60 0,0
17.02.2019 11:00:00 7,5 -6,1 5,3 0,3 0,6 3,2 5 3 9 5 S 1028,5 72 60 0,0
17.02.2019 10:00:00 2,6 -5,8 -0,9 0,3 0,6 3,2 3 2 7 4 SW 1030,5 75 60 0,0
17.02.2019 09:00:00 -3,7 -7,4 -6,0 0,3 0,6 3,2 5 3 9 5 SSW 1033,1 51 20 0,0
17.02.2019 08:00:00 -5,9 -6,9 -7,5 0,3 0,6 3,2 4 2 6 4 WSW 1033,9 69 0 0,0
17.02.2019 07:00:00 -5,9 -7,1 -7,4 0,3 0,6 3,2 3 2 7 4 SW 1033,6 75 0 0,0
17.02.2019 06:00:00 -5,5 -6,8 -7,3 0,3 0,6 3,2 3 2 7 4 W 1033,4 75 0 0,0
17.02.2019 05:00:00 -5,5 -6,6 -7,7 0,3 0,6 3,2 4 2 6 3 WSW 1033,5 75 0 0,0
17.02.2019 04:00:00 -5,2 -6,5 -6,7 0,3 0,6 3,2 4 2 7 4 WSW 1033,6 75 0 0,0
17.02.2019 03:00:00 -5,2 -6,4 -6,9 0,3 0,6 3,2 4 2 6 3 SW 1033,8 75 0 0,0
17.02.2019 02:00:00 -4,7 -6,1 -6,1 0,3 0,6 3,2 3 2 6 3 WSW 1033,6 56 0 0,0
17.02.2019 01:00:00 -4,1 -5,7 -6,5 0,3 0,6 3,2 4 2 8 4 W 1033,7 56 0 0,0
17.02.2019 00:00:00 -3,7 -5,1 -5,3 0,3 0,6 3,2 4 2 7 4 SSW 1033,8 47 0 0,0
16.02.2019 23:00:00 -3,1 -4,6 -5,4 0,3 0,6 3,2 3 2 6 3 SW 1033,9 35 0 0,0
16.02.2019 22:00:00 -2,7 -4,8 -5,2 0,3 0,6 3,2 4 2 8 4 SW 1033,8 41 0 0,0
16.02.2019 21:00:00 -1,7 -3,5 -3,6 0,3 0,6 3,2 4 2 6 3 WSW 1033,4 32 0 0,0
16.02.2019 20:00:00 -0,9 -3,5 -3,1 0,3 0,6 3,2 4 2 7 4 SSW 1033,3 24 0 0,0
16.02.2019 19:00:00 0,8 -3,2 -1,0 0,3 0,6 3,2 4 2 9 5 SW 1032,5 32 0 0,0
16.02.2019 18:00:00 2,7 -2,9 0,5 0,3 0,6 3,2 5 3 9 5 SW 1031,3 70 13 0,0
16.02.2019 17:00:00 6,4 -2,3 4,3 0,2 0,6 3,2 4 2 8 4 WSW 1029,8 69 60 0,0
16.02.2019 16:00:00 9,5 -3,1 6,7 0,2 0,6 3,2 4 2 6 3 SW 1028,7 75 60 0,0
16.02.2019 15:00:00 13,9 -3,3 9,7 0,2 0,6 3,2 4 2 8 5 E 1027,4 62 60 0,0
16.02.2019 14:00:00 12,5 -4,1 9,9 0,2 0,6 3,2 3 2 5 3 SSE 1028,2 75 60 0,0
16.02.2019 13:00:00 12,2 -3,5 9,6 0,2 0,6 3,2 3 1 7 4 ESE 1029,1 75 60 0,0
16.02.2019 12:00:00 10,8 -3,6 8,7 0,2 0,6 3,2 5 3 8 4 S 1030,1 67 60 0,0
16.02.2019 11:00:00 7,2 -5,0 4,0 0,2 0,6 3,2 3 1 13 7 SSE 1031,5 73 60 0,0
16.02.2019 10:00:00 2,5 -4,1 -0,2 0,2 0,6 3,2 7 4 13 7 S 1033,4 75 60 0,0
16.02.2019 09:00:00 -3,1 -5,7 -5,5 0,3 0,6 3,3 5 3 9 5 SSW 1035,8 63 18 0,0
16.02.2019 08:00:00 -5,2 -6,4 -7,4 0,3 0,6 3,3 4 2 9 5 WSW 1036,4 67 0 0,0
16.02.2019 07:00:00 -5,2 -6,1 -7,5 0,3 0,6 3,3 4 2 8 4 W 1035,9 73 0 0,0
16.02.2019 06:00:00 -5,3 -6,4 -7,0 0,3 0,6 3,3 2 1 7 4 WSW 1035,4 65 0 0,0
16.02.2019 05:00:00 -5,1 -6,0 -7,2 0,3 0,6 3,3 3 1 6 4 W 1035,0 69 0 0,0
16.02.2019 04:00:00 -4,8 -5,9 -7,5 0,3 0,6 3,3 3 2 6 4 SSW 1034,8 66 0 0,0
16.02.2019 03:00:00 -4,1 -5,1 -6,2 0,3 0,6 3,3 3 2 7 4 SSW 1034,7 75 0 0,0
16.02.2019 02:00:00 -4,0 -5,1 -5,8 0,3 0,6 3,3 3 2 9 5 SW 1034,9 51 0 0,0
16.02.2019 01:00:00 -4,1 -5,2 -6,0 0,3 0,6 3,3 5 3 8 4 WSW 1035,4 59 0 0,0
16.02.2019 00:00:00 -4,0 -5,0 -5,5 0,3 0,6 3,3 4 2 7 4 WSW 1035,5 40 0 0,0
15.02.2019 23:00:00 -3,5 -4,8 -5,5 0,3 0,6 3,3 3 2 8 5 WSW 1035,5 37 0 0,0
15.02.2019 22:00:00 -2,6 -4,2 -4,5 0,3 0,6 3,3 4 2 7 4 WSW 1035,4 43 0 0,0
15.02.2019 21:00:00 -2,2 -3,9 -3,6 0,3 0,6 3,3 2 1 6 3 W 1035,7 36 0 0,0
15.02.2019 20:00:00 -1,5 -3,5 -3,2 0,3 0,6 3,3 3 2 8 4 WSW 1035,8 40 0 0,0
15.02.2019 19:00:00 -0,3 -3,0 -2,2 0,3 0,6 3,3 3 2 8 5 SW 1035,6 31 0 0,0
15.02.2019 18:00:00 1,7 -2,5 -0,2 0,2 0,6 3,3 3 1 7 4 WSW 1034,8 60 12 0,0
15.02.2019 17:00:00 6,0 -2,0 4,1 0,2 0,6 3,3 4 2 7 4 WSW 1033,1 74 57 0,0
15.02.2019 16:00:00 8,3 -3,1 6,5 0,2 0,6 3,3 3 2 14 8 SSE 1032,6 59 60 0,0
15.02.2019 15:00:00 10,1 -4,4 10,5 0,2 0,6 3,3 8 5 18 10 E 1032,5 75 60 0,0
15.02.2019 14:00:00 10,7 -4,5 11,6 0,2 0,6 3,3 9 5 13 7 E 1032,4 75 60 0,0
15.02.2019 13:00:00 10,8 -4,8 8,7 0,2 0,6 3,3 4 2 8 4 SSE 1032,7 65 60 0,0
15.02.2019 12:00:00 10,8 -3,6 6,6 0,2 0,6 3,3 3 2 6 3 SE 1033,1 75 60 0,0
15.02.2019 11:00:00 7,2 -6,6 1,9 0,2 0,6 3,3 4 2 6 3 ENE 1034,8 69 60 0,0
15.02.2019 10:00:00 0,9 -3,9 -1,9 0,2 0,6 3,3 4 2 7 4 SSW 1037,1 66 60 0,0
15.02.2019 09:00:00 -4,3 -5,9 -6,1 0,3 0,6 3,3 5 3 8 4 SW 1039,3 61 17 0,0
15.02.2019 08:00:00 -5,6 -6,4 -8,1 0,3 0,6 3,3 3 2 7 4 W 1039,9 55 0 0,0
15.02.2019 07:00:00 -6,0 -6,8 -7,3 0,3 0,6 3,3 5 3 7 4 WSW 1039,9 60 0 0,0
15.02.2019 06:00:00 -5,7 -6,5 -7,3 0,3 0,6 3,3 3 1 6 3 W 1039,9 68 0 0,0
15.02.2019 05:00:00 -5,9 -6,6 -8,3 0,3 0,6 3,3 4 2 6 4 SSW 1040,2 67 0 0,0
15.02.2019 04:00:00 -5,5 -6,3 -7,3 0,3 0,6 3,3 4 2 7 4 WSW 1040,3 55 0 0,0
15.02.2019 03:00:00 -5,1 -5,9 -7,0 0,3 0,6 3,3 4 2 7 4 SW 1040,1 56 0 0,0
15.02.2019 02:00:00 -4,7 -5,4 -6,3 0,3 0,6 3,3 5 3 7 4 SW 1040,3 44 0 0,0
15.02.2019 01:00:00 -4,5 -5,3 -6,1 0,3 0,6 3,3 4 2 6 3 SW 1040,6 37 0 0,0
15.02.2019 00:00:00 -4,0 -4,7 -5,9 0,3 0,6 3,3 4 2 8 4 SW 1040,5 33 0 0,0
14.02.2019 23:00:00 -3,1 -3,9 -5,5 0,3 0,6 3,3 5 3 8 4 WSW 1040,4 48 0 0,0
14.02.2019 22:00:00 -3,0 -3,8 -5,5 0,3 0,6 3,3 4 2 10 5 WSW 1040,1 27 0 0,0
14.02.2019 21:00:00 -2,3 -3,6 -4,3 0,3 0,6 3,3 6 3 9 5 S 1040,0 36 0 0,0
14.02.2019 20:00:00 -1,7 -2,9 -3,9 0,2 0,6 3,3 6 4 11 6 SSW 1040,3 35 0 0,0
14.02.2019 19:00:00 -0,6 -2,3 -2,4 0,3 0,6 3,3 4 2 9 5 SSW 1039,7 50 0 0,0
14.02.2019 18:00:00 1,3 -1,5 -0,8 0,2 0,6 3,3 5 3 10 5 SW 1038,0 64 10 0,0
14.02.2019 17:00:00 4,8 -0,9 2,9 0,2 0,6 3,3 2 1 7 4 WSW 1037,2 65 54 0,0
14.02.2019 16:00:00 8,0 -1,7 5,8 0,2 0,6 3,3 3 2 14 8 WSW 1035,7 75 59 0,0
14.02.2019 15:00:00 9,3 -2,8 9,6 0,2 0,6 3,3 10 5 16 9 E 1035,8 73 60 0,0
14.02.2019 14:00:00 9,9 -3,5 10,1 0,2 0,6 3,3 6 4 12 6 E 1035,4 72 60 0,0
14.02.2019 13:00:00 8,9 -4,0 8,2 0,2 0,6 3,3 4 2 7 4 E 1036,7 69 60 0,0
14.02.2019 12:00:00 7,7 -3,1 7,9 0,2 0,6 3,3 3 2 6 4 ESE 1037,8 75 60 0,0
14.02.2019 11:00:00 5,0 -2,5 0,9 0,2 0,6 3,3 5 3 7 4 SSE 1038,4 75 60 0,0
14.02.2019 10:00:00 1,2 -2,3 -0,9 0,2 0,6 3,3 4 2 9 5 SSE 1040,1 44 60 0,0
14.02.2019 09:00:00 -4,0 -5,1 -5,8 0,3 0,6 3,3 4 2 7 4 SSW 1042,4 46 14 0,0
14.02.2019 08:00:00 -5,5 -6,3 -7,2 0,3 0,6 3,3 5 3 8 5 SSW 1042,7 62 0 0,0
14.02.2019 07:00:00 -5,5 -6,4 -7,5 0,3 0,6 3,3 5 3 10 6 SW 1041,7 75 0 0,0
14.02.2019 06:00:00 -5,3 -6,0 -7,5 0,3 0,6 3,3 5 3 9 5 S 1041,5 68 0 0,0
14.02.2019 05:00:00 -5,7 -6,4 -7,7 0,3 0,6 3,3 5 3 9 5 SSW 1042,0 65 0 0,0
14.02.2019 04:00:00 -5,5 -6,2 -8,3 0,3 0,6 3,3 4 2 6 3 WSW 1041,9 56 0 0,0
14.02.2019 03:00:00 -5,1 -5,7 -7,2 0,3 0,6 3,3 4 2 7 4 SSW 1041,6 61 0 0,0
14.02.2019 02:00:00 -4,5 -5,1 -6,7 0,3 0,6 3,3 3 2 8 4 NW 1041,1 62 0 0,0
14.02.2019 01:00:00 -4,2 -4,8 -5,8 0,3 0,6 3,3 4 2 7 4 W 1041,2 40 0 0,0
14.02.2019 00:00:00 -4,2 -4,8 -5,8 0,3 0,6 3,3 4 2 10 5 WSW 1041,1 33 0 0,0
13.02.2019 23:00:00 -4,0 -4,6 -6,3 0,3 0,6 3,3 3 2 8 4 WSW 1041,4 22 0 0,0
13.02.2019 22:00:00 -4,0 -4,6 -6,3 0,3 0,6 3,3 5 3 8 4 S 1041,3 30 0 0,0
13.02.2019 21:00:00 -3,4 -4,1 -5,1 0,3 0,6 3,3 4 2 6 3 SSW 1040,5 27 0 0,0
13.02.2019 20:00:00 -2,6 -3,6 -4,3 0,3 0,6 3,3 3 2 6 3 SW 1040,6 26 0 0,0
13.02.2019 19:00:00 -1,4 -2,5 -3,2 0,3 0,6 3,3 0 0 8 4 N 1040,1 29 0 0,0
13.02.2019 18:00:00 -0,4 -2,0 -2,3 0,2 0,6 3,3 3 2 5 3 SW 1039,4 63 6 0,0
13.02.2019 17:00:00 2,9 -1,3 0,6 0,2 0,6 3,3 2 1 5 3 SW 1038,1 54 48 0,0
13.02.2019 16:00:00 6,3 -2,3 3,9 0,2 0,6 3,3 3 2 6 3 SSW 1036,8 62 60 0,0
13.02.2019 15:00:00 7,2 -4,6 6,4 0,2 0,6 3,3 3 2 10 5 ESE 1036,9 67 60 0,0
13.02.2019 14:00:00 5,7 -4,4 6,6 0,2 0,6 3,3 6 3 8 5 E 1037,4 74 60 0,0
13.02.2019 13:00:00 5,4 -4,7 5,8 0,2 0,6 3,3 4 2 13 7 SE 1037,7 75 60 0,0
13.02.2019 12:00:00 3,4 -5,2 2,7 0,2 0,6 3,3 9 5 13 7 E 1038,3 75 60 0,0
13.02.2019 11:00:00 2,0 -4,8 -1,7 0,2 0,6 3,3 5 3 10 5 S 1039,2 58 60 0,0
13.02.2019 10:00:00 -1,5 -5,7 -3,5 0,2 0,6 3,3 3 2 6 3 S 1041,0 64 60 0,0
13.02.2019 09:00:00 -5,6 -6,8 -7,5 0,3 0,6 3,3 3 2 6 3 SSW 1042,5 29 12 0,0
13.02.2019 08:00:00 -6,3 -7,5 -8,3 0,3 0,6 3,3 4 2 6 3 SW 1042,9 33 0 0,0
13.02.2019 07:00:00 -5,9 -6,9 -6,6 0,3 0,6 3,3 3 1 6 3 W 1042,6 43 0 0,0
13.02.2019 06:00:00 -7,6 -8,5 -10,6 0,3 0,6 3,3 3 2 8 5 NNW 1042,9 40 0 0,0
13.02.2019 05:00:00 -7,8 -8,8 -10,3 0,3 0,6 3,3 3 2 8 4 S 1042,6 38 0 0,0
13.02.2019 04:00:00 -7,7 -8,7 -9,9 0,3 0,6 3,3 3 2 6 3 SSW 1042,8 34 0 0,0
13.02.2019 03:00:00 -6,9 -7,8 -9,1 0,3 0,6 3,3 2 1 9 5 NW 1042,1 35 0 0,0
13.02.2019 02:00:00 -6,4 -7,1 -9,3 0,3 0,6 3,3 2 1 6 4 WSW 1041,7 26 0 0,0
13.02.2019 01:00:00 -5,7 -6,4 -7,8 0,3 0,6 3,3 3 2 7 4 S 1041,4 25 0 0,0
13.02.2019 00:00:00 -5,1 -5,8 -8,3 0,3 0,6 3,3 3 2 7 4 S 1041,0 17 0 0,0
12.02.2019 23:00:00 -3,3 -4,1 -5,4 0,3 0,6 3,3 0 0 6 3 N 1040,3 16 0 0,0
12.02.2019 22:00:00 -2,6 -3,6 -3,9 0,3 0,6 3,3 3 2 5 3 S 1040,2 25 0 0,0
12.02.2019 21:00:00 -2,4 -3,4 -3,5 0,3 0,6 3,3 2 1 4 2 SSW 1039,9 23 0 0,0
12.02.2019 20:00:00 -1,9 -2,6 -3,7 0,3 0,6 3,3 0 0 4 2 N 1039,2 19 0 0,0
12.02.2019 19:00:00 -1,8 -2,5 -3,3 0,3 0,6 3,3 2 1 5 3 SSW 1038,8 22 0 0,0
12.02.2019 18:00:00 -0,5 -1,8 -3,9 0,3 0,6 3,3 3 1 6 3 N 1037,2 18 0 0,0
12.02.2019 17:00:00 1,4 -2,6 0,1 0,2 0,6 3,3 3 2 15 8 ENE 1036,3 63 0 0,0
12.02.2019 16:00:00 1,2 -2,4 0,4 0,2 0,6 3,3 6 4 16 9 ESE 1036,1 41 0 0,0
12.02.2019 15:00:00 1,2 -2,5 0,5 0,2 0,6 3,3 5 3 15 8 NE 1035,7 40 0 0,0
12.02.2019 14:00:00 1,4 -2,1 0,1 0,2 0,6 3,3 5 3 20 11 E 1035,1 32 0 0,0
12.02.2019 13:00:00 0,3 -2,2 0,0 0,2 0,6 3,3 9 5 21 11 NE 1035,7 10 0 0,1
12.02.2019 12:00:00 0,2 -2,1 0,0 0,2 0,6 3,3 8 4 24 13 ENE 1035,6 12 0 0,0
12.02.2019 11:00:00 0,5 -2,0 0,0 0,2 0,6 3,3 6 3 16 9 NE 1035,4 11 0 0,1
12.02.2019 10:00:00 0,3 -1,0 0,0 0,3 0,6 3,3 3 1 6 3 SSW 1035,1 8 0 0,2
12.02.2019 09:00:00 -0,4 -1,7 -0,7 0,3 0,6 3,3 0 0 11 6 N 1034,5 3,4 0 0,3
12.02.2019 08:00:00 -0,7 -1,7 -1,9 0,2 0,6 3,3 4 2 13 7 NNE 1034,0 13 0 0,0
12.02.2019 07:00:00 -1,1 -1,8 -2,5 0,3 0,6 3,3 3 1 9 5 N 1033,7 23 0 0,0
12.02.2019 06:00:00 -0,8 -1,5 -2,1 0,2 0,6 3,3 3 1 13 7 SSW 1033,3 20 0 0,0
12.02.2019 05:00:00 -0,5 -1,1 -1,8 0,2 0,6 3,3 3 2 9 5 ESE 1032,7 17 0 0,4
12.02.2019 04:00:00 -0,3 -1,2 -1,2 0,3 0,6 3,3 3 2 10 5 ENE 1032,5 3,8 0 0,1
12.02.2019 03:00:00 -0,5 -1,0 -1,3 0,3 0,6 3,3 3 2 9 5 ENE 1031,7 14 0 0,3
12.02.2019 02:00:00 -0,6 -1,2 -1,8 0,3 0,6 3,3 3 2 7 4 SSW 1031,3 6 0 0,2
12.02.2019 01:00:00 -0,4 -1,4 -1,1 0,3 0,6 3,3 4 2 10 5 NE 1030,7 8 0 1,1
12.02.2019 00:00:00 -0,4 -1,2 -0,9 0,3 0,6 3,3 4 2 13 7 WSW 1030,5 0,4 0 0,1
11.02.2019 23:00:00 -0,5 -1,2 -1,8 0,2 0,6 3,3 3 2 17 9 SE 1029,9 34 0 0,5
11.02.2019 22:00:00 -0,4 -1,2 -1,0 0,3 0,6 3,3 5 3 13 7 NW 1029,5 14 0 0,0
11.02.2019 21:00:00 -0,5 -1,8 -1,4 0,3 0,6 3,3 4 2 13 7 NE 1028,2 17 0 0,3
11.02.2019 20:00:00 -0,1 -2,3 -1,1 0,3 0,6 3,3 5 3 22 12 SW 1028,0 26 0 0,0
11.02.2019 19:00:00 0,1 -2,2 -1,4 0,3 0,6 3,3 6 3 17 9 WSW 1027,4 13 0 0,0
11.02.2019 18:00:00 0,0 -2,8 -1,4 0,3 0,6 3,3 6 3 14 8 WSW 1026,1 61 0 0,0
11.02.2019 17:00:00 0,6 -3,2 -1,0 0,2 0,6 3,3 6 3 14 8 W 1024,8 73 0 0,0
11.02.2019 16:00:00 0,5 -2,9 -0,5 0,3 0,6 3,3 6 3 23 12 WNW 1023,8 64 0 0,1
11.02.2019 15:00:00 0,5 -1,1 0,1 0,2 0,6 3,3 5 3 13 7 E 1022,5 32 0 0,0

tt = Température de l'air
td = dewpoint
tt 5cm = Température de l'air 5cm
tt -5cm = Température de l'air -5cm
tt -20cm = Température de l'air -20cm
tt -100cm = Température de l'air -100cm
ff = Vitesse du vent
fx = gusts
dd = Direction du vent
ppp = reduced air pressure
vv = visibility
sd = Ensoleillement
rr = Quantités de précipitations

stations d'obs. à proximité